Regional Weather Roundup
Issued by NWS Spokane, WA

Home | Current Version | Previous Version | Text Only | Print | Product List | Glossary On
Versions: 1 2 3 4 5 6 7 8 9 10 11 12 13 14 15 16 17 18 19 20 21 22 23 24 25 26 27 28 29 30 31 32 33 34 35 36 37 38 39 40 41 42 43 44 45 46 47 48 49 50
000
NZUS01 KOTX 250810
RWROTX
EASTERN WASHINGTON/NORTHERN IDAHO ROUNDUP
NATIONAL WEATHER SERVICE, SPOKANE WA
100 AM PDT MON MAY 25 2015

Note: "fair" indicated few or no clouds below 12,000 feet with no
significant weather and/or obstructions to visibility.

...NORTHEAST WASHINGTON AND NORTHERN IDAHO PANHANDLE...

CITY           SKY/WX    TMP DP  RH WIND       PRES   REMARKS
SPOKANE INTL   CLOUDY    60  47  61 NE8       29.84F
SPOKANE DOWNTO CLOUDY    60  48  64 CALM      29.85F
COEUR D ALENE  CLOUDY    57  52  82 NE15      29.87F
DEER PARK      CLOUDY    57  48  72 NE13      29.86F
SANDPOINT      LGT RAIN  55  54  94 CALM      29.89F
BONNERS FERRY  RAIN      57  50  77 SW6       29.91R

...SOUTHEAST WASHINGTON AND SOUTHERN IDAHO PANHANDLE...

CITY           SKY/WX    TMP DP  RH WIND       PRES   REMARKS
WALLA WALLA    PTCLDY    61  48  62 S15       29.87R
PULLMAN/MOSCOW MOCLDY    54  50  86 CALM      29.86S
LEWISTON       PTCLDY    61  51  70 S5        29.81S
LOWELL           N/A     54  52  93 N3        29.87S

...COLUMBIA BASIN...

CITY           SKY/WX    TMP DP  RH WIND       PRES   REMARKS
EPHRATA        CLOUDY    63  48  58 N15       29.83S
MOSES LAKE     CLOUDY    63  49  60 N16G22    29.82F
TRI CITIES     PTCLDY    65  47  52 W10       29.83S
HERMISTON      PTCLDY    60  46  59 SW14      29.86R
PENDLETON      PTCLDY    56  44  64 W13       29.88R

...EAST SLOPES CASCADES...

CITY           SKY/WX    TMP DP  RH WIND       PRES   REMARKS
THE DALLES     MOCLDY    60  47  61 NW7       29.91S
YAKIMA         CLOUDY    64  42  44 NW15G22   29.87S
ELLENSBURG     CLOUDY    58  44  60 NW21G29   29.88S
WENATCHEE      CLOUDY    64  41  42 W15       29.86S
OMAK           PTCLDY    56  49  77 N12       29.87F

...SOUTHERN BRITISH COLUMBIA...

CITY           SKY/WX    TMP DP  RH WIND       PRES   REMARKS

...WESTERN MONTANA...

CITY           SKY/WX    TMP DP  RH WIND       PRES   REMARKS
MISSOULA       PTCLDY    47  38  71 W5        29.92S

...NEIGHBORING CITIES...

CITY           SKY/WX    TMP DP  RH WIND       PRES   REMARKS
SEATTLE        CLOUDY    54  47  77 SW6       30.02F
CALGARY        PTCLDY    52  36  54 S8        29.91F



USA.gov is the U.S. government's official web portal to all federal, state and local government web resources and services.